Year,Month,Day,Hour,Minute,Value (Times are PST for temperature in C)
2016,09,29,00,00,7.30
2016,09,29,00,01,7.20
2016,09,29,00,02,7.20
2016,09,29,00,03,7.20
2016,09,29,00,04,7.20
2016,09,29,00,05,7.20
2016,09,29,00,06,7.20
2016,09,29,00,07,7.10
2016,09,29,00,08,7.10
2016,09,29,00,09,7.10
2016,09,29,00,10,7.10
2016,09,29,00,11,7.10
2016,09,29,00,12,7.00
2016,09,29,00,13,7.00
2016,09,29,00,14,7.00
2016,09,29,00,15,6.90
2016,09,29,00,16,6.90
2016,09,29,00,17,6.90
2016,09,29,00,18,6.90
2016,09,29,00,19,6.90
2016,09,29,00,20,6.90
2016,09,29,00,21,6.90
2016,09,29,00,22,6.90
2016,09,29,00,23,6.90
2016,09,29,00,24,6.80
2016,09,29,00,25,6.80
2016,09,29,00,26,6.80
2016,09,29,00,27,6.80
2016,09,29,00,28,6.80
2016,09,29,00,29,6.80
2016,09,29,00,30,6.80
2016,09,29,00,31,6.70
2016,09,29,00,32,6.70
2016,09,29,00,33,6.70
2016,09,29,00,34,6.70
2016,09,29,00,35,6.70
2016,09,29,00,36,6.60
2016,09,29,00,37,6.60
2016,09,29,00,38,6.60
2016,09,29,00,39,6.60
2016,09,29,00,40,6.60
2016,09,29,00,41,6.50
2016,09,29,00,42,6.50
2016,09,29,00,43,6.50
2016,09,29,00,44,6.50
2016,09,29,00,45,6.40
2016,09,29,00,46,6.40
2016,09,29,00,47,6.40
2016,09,29,00,48,6.40
2016,09,29,00,49,6.40
2016,09,29,00,50,6.40
2016,09,29,00,51,6.40
2016,09,29,00,52,6.40
2016,09,29,00,53,6.40
2016,09,29,00,54,6.40
2016,09,29,00,55,6.40
2016,09,29,00,56,6.40
2016,09,29,00,57,6.40
2016,09,29,00,58,6.30
2016,09,29,00,59,6.30
2016,09,29,01,00,6.30
2016,09,29,01,01,6.30
2016,09,29,01,02,6.30
2016,09,29,01,03,6.30
2016,09,29,01,04,6.30
2016,09,29,01,05,6.30
2016,09,29,01,06,6.30
2016,09,29,01,07,6.30
2016,09,29,01,08,6.30
2016,09,29,01,09,6.30
2016,09,29,01,10,6.30
2016,09,29,01,11,6.30
2016,09,29,01,12,6.30
2016,09,29,01,13,6.30
2016,09,29,01,14,6.30
2016,09,29,01,15,6.20
2016,09,29,01,16,6.10
2016,09,29,01,17,6.10
2016,09,29,01,18,6.10
2016,09,29,01,19,6.10
2016,09,29,01,20,6.00
2016,09,29,01,21,6.00
2016,09,29,01,22,6.00
2016,09,29,01,23,6.00
2016,09,29,01,24,5.90
2016,09,29,01,25,5.90
2016,09,29,01,26,5.90
2016,09,29,01,27,5.90
2016,09,29,01,28,5.90
2016,09,29,01,29,5.90
2016,09,29,01,30,5.80
2016,09,29,01,31,5.80
2016,09,29,01,32,5.80
2016,09,29,01,33,5.80
2016,09,29,01,34,5.80
2016,09,29,01,35,5.80
2016,09,29,01,36,5.80
2016,09,29,01,37,5.80
2016,09,29,01,38,5.80
2016,09,29,01,39,5.80
2016,09,29,01,40,5.70
2016,09,29,01,41,5.70
2016,09,29,01,42,5.70
2016,09,29,01,43,5.70
2016,09,29,01,44,5.70
2016,09,29,01,45,5.70
2016,09,29,01,46,5.60
2016,09,29,01,47,5.60
2016,09,29,01,48,5.60
2016,09,29,01,49,5.60
2016,09,29,01,50,5.60
2016,09,29,01,51,5.50
2016,09,29,01,52,5.50
2016,09,29,01,53,5.50
2016,09,29,01,54,5.50
2016,09,29,01,55,5.50
2016,09,29,01,56,5.50
2016,09,29,01,57,5.50
2016,09,29,01,58,5.50
2016,09,29,01,59,5.50
2016,09,29,02,00,5.40
2016,09,29,02,01,5.40
2016,09,29,02,02,5.40
2016,09,29,02,03,5.40
2016,09,29,02,04,5.40
2016,09,29,02,05,5.40
2016,09,29,02,06,5.40
2016,09,29,02,07,5.40
2016,09,29,02,08,5.40
2016,09,29,02,09,5.40
2016,09,29,02,10,5.40
2016,09,29,02,11,5.30
2016,09,29,02,12,5.30
2016,09,29,02,13,5.30
2016,09,29,02,14,5.30
2016,09,29,02,15,5.30
2016,09,29,02,16,5.30
2016,09,29,02,17,5.20
2016,09,29,02,18,5.20
2016,09,29,02,19,5.20
2016,09,29,02,20,5.20
2016,09,29,02,21,5.20
2016,09,29,02,22,5.20
2016,09,29,02,23,5.20
2016,09,29,02,24,5.20
2016,09,29,02,25,5.20
2016,09,29,02,26,5.20
2016,09,29,02,27,5.20
2016,09,29,02,28,5.20
2016,09,29,02,29,5.20
2016,09,29,02,30,5.20
2016,09,29,02,31,5.10
2016,09,29,02,32,5.10
2016,09,29,02,33,5.10
2016,09,29,02,34,5.10
2016,09,29,02,35,5.10
2016,09,29,02,36,5.00
2016,09,29,02,37,5.00
2016,09,29,02,38,5.00
2016,09,29,02,39,5.00
2016,09,29,02,40,4.90
2016,09,29,02,41,4.90
2016,09,29,02,42,4.90
2016,09,29,02,43,4.90
2016,09,29,02,44,4.90
2016,09,29,02,45,4.90
2016,09,29,02,46,4.90
2016,09,29,02,47,4.90
2016,09,29,02,48,4.90
2016,09,29,02,49,4.90
2016,09,29,02,50,4.90
2016,09,29,02,51,4.90
2016,09,29,02,52,4.80
2016,09,29,02,53,4.80
2016,09,29,02,54,4.80
2016,09,29,02,55,4.80
2016,09,29,02,56,4.80
2016,09,29,02,57,4.80
2016,09,29,02,58,4.80
2016,09,29,02,59,4.80
2016,09,29,03,00,4.80
2016,09,29,03,01,4.80
2016,09,29,03,02,4.80
2016,09,29,03,03,4.80
2016,09,29,03,04,4.80
2016,09,29,03,05,4.80
2016,09,29,03,06,4.80
2016,09,29,03,07,4.70
2016,09,29,03,08,4.70
2016,09,29,03,09,4.70
2016,09,29,03,10,4.70
2016,09,29,03,11,4.70
2016,09,29,03,12,4.70
2016,09,29,03,13,4.70
2016,09,29,03,14,4.70
2016,09,29,03,15,4.70
2016,09,29,03,16,4.60
2016,09,29,03,17,4.60
2016,09,29,03,18,4.60
2016,09,29,03,19,4.60
2016,09,29,03,20,4.60
2016,09,29,03,21,4.60
2016,09,29,03,22,4.50
2016,09,29,03,23,4.50
2016,09,29,03,24,4.50
2016,09,29,03,25,4.50
2016,09,29,03,26,4.50
2016,09,29,03,27,4.50
2016,09,29,03,28,4.50
2016,09,29,03,29,4.50
2016,09,29,03,30,4.50
2016,09,29,03,31,4.50
2016,09,29,03,32,4.50
2016,09,29,03,33,4.50
2016,09,29,03,34,4.50
2016,09,29,03,35,4.50
2016,09,29,03,36,4.50
2016,09,29,03,37,4.50
2016,09,29,03,38,4.50
2016,09,29,03,39,4.50
2016,09,29,03,40,4.50
2016,09,29,03,41,4.50
2016,09,29,03,42,4.50
2016,09,29,03,43,4.50
2016,09,29,03,44,4.40
2016,09,29,03,45,4.40
2016,09,29,03,46,4.40
2016,09,29,03,47,4.40
2016,09,29,03,48,4.40
2016,09,29,03,49,4.40
2016,09,29,03,50,4.40
2016,09,29,03,51,4.30
2016,09,29,03,52,4.30
2016,09,29,03,53,4.30
2016,09,29,03,54,4.30
2016,09,29,03,55,4.30
2016,09,29,03,56,4.40
2016,09,29,03,57,4.40
2016,09,29,03,58,4.40
2016,09,29,03,59,4.40
2016,09,29,04,00,4.40
2016,09,29,04,01,4.40
2016,09,29,04,02,4.40
2016,09,29,04,03,4.40
2016,09,29,04,04,4.40
2016,09,29,04,05,4.50
2016,09,29,04,06,4.50
2016,09,29,04,07,4.50
2016,09,29,04,08,4.50
2016,09,29,04,09,4.50
2016,09,29,04,10,4.50
2016,09,29,04,11,4.50
2016,09,29,04,12,4.50
2016,09,29,04,13,4.50
2016,09,29,04,14,4.50
2016,09,29,04,15,4.50
2016,09,29,04,16,4.40
2016,09,29,04,17,4.50
2016,09,29,04,18,4.50
2016,09,29,04,19,4.50
2016,09,29,04,20,4.50
2016,09,29,04,21,4.50
2016,09,29,04,22,4.50
2016,09,29,04,23,4.50
2016,09,29,04,24,4.50
2016,09,29,04,25,4.50
2016,09,29,04,26,4.50
2016,09,29,04,27,4.60
2016,09,29,04,28,4.60
2016,09,29,04,29,4.60
2016,09,29,04,30,4.60
2016,09,29,04,31,4.60
2016,09,29,04,32,4.60
2016,09,29,04,33,4.60
2016,09,29,04,34,4.70
2016,09,29,04,35,4.60
2016,09,29,04,36,4.70
2016,09,29,04,37,4.70
2016,09,29,04,38,4.70
2016,09,29,04,39,4.70
2016,09,29,04,40,4.70
2016,09,29,04,41,4.70
2016,09,29,04,42,4.70
2016,09,29,04,43,4.70
2016,09,29,04,44,4.70
2016,09,29,04,45,4.70
2016,09,29,04,46,4.70
2016,09,29,04,47,4.70
2016,09,29,04,48,4.70
2016,09,29,04,49,4.70
2016,09,29,04,50,4.70
2016,09,29,04,51,4.70
2016,09,29,04,52,4.70
2016,09,29,04,53,4.70
2016,09,29,04,54,4.70
2016,09,29,04,55,4.80
2016,09,29,04,56,4.80
2016,09,29,04,57,4.80
2016,09,29,04,58,4.80
2016,09,29,04,59,4.80
2016,09,29,05,00,4.80
2016,09,29,05,01,4.80
2016,09,29,05,02,4.90
2016,09,29,05,03,4.90
2016,09,29,05,04,4.90
2016,09,29,05,05,4.90
2016,09,29,05,06,4.90
2016,09,29,05,07,4.90
2016,09,29,05,08,4.90
2016,09,29,05,09,4.90
2016,09,29,05,10,4.90
2016,09,29,05,11,4.90
2016,09,29,05,12,4.90
2016,09,29,05,13,4.90
2016,09,29,05,14,4.90
2016,09,29,05,15,4.90
2016,09,29,05,16,4.90
2016,09,29,05,17,4.90
2016,09,29,05,18,4.90
2016,09,29,05,19,4.90
2016,09,29,05,20,4.90
2016,09,29,05,21,5.00
2016,09,29,05,22,5.00
2016,09,29,05,23,5.00
2016,09,29,05,24,5.10
2016,09,29,05,25,5.10
2016,09,29,05,26,5.10
2016,09,29,05,27,5.10
2016,09,29,05,28,5.10
2016,09,29,05,29,5.10
2016,09,29,05,30,5.10
2016,09,29,05,31,5.10
2016,09,29,05,32,5.10
2016,09,29,05,33,5.00
2016,09,29,05,34,5.00
2016,09,29,05,35,5.00
2016,09,29,05,36,5.00
2016,09,29,05,37,5.00
2016,09,29,05,38,5.00
2016,09,29,05,39,5.00
2016,09,29,05,40,5.00
2016,09,29,05,41,5.00
2016,09,29,05,42,5.00
2016,09,29,05,43,5.00
2016,09,29,05,44,5.00
2016,09,29,05,45,5.00
2016,09,29,05,46,5.00
2016,09,29,05,47,5.00
2016,09,29,05,48,5.00
2016,09,29,05,49,5.00
2016,09,29,05,50,5.00
2016,09,29,05,51,5.00
2016,09,29,05,52,5.00
2016,09,29,05,53,5.00
2016,09,29,05,54,5.00
2016,09,29,05,55,5.00
2016,09,29,05,56,5.00
2016,09,29,05,57,5.00
2016,09,29,05,58,5.00
2016,09,29,05,59,5.00
2016,09,29,06,00,5.00
2016,09,29,06,01,5.00
2016,09,29,06,02,5.00
2016,09,29,06,03,4.90
2016,09,29,06,04,4.90
2016,09,29,06,05,4.90
2016,09,29,06,06,4.90
2016,09,29,06,07,4.80
2016,09,29,06,08,4.80
2016,09,29,06,09,4.80
2016,09,29,06,10,4.80
2016,09,29,06,11,4.70
2016,09,29,06,12,4.70
2016,09,29,06,13,4.70
2016,09,29,06,14,4.70
2016,09,29,06,15,4.70
2016,09,29,06,16,4.70
2016,09,29,06,17,4.70
2016,09,29,06,18,4.60
2016,09,29,06,19,4.60
2016,09,29,06,20,4.60
2016,09,29,06,21,4.60
2016,09,29,06,22,4.60
2016,09,29,06,23,4.60
2016,09,29,06,24,4.60
2016,09,29,06,25,4.60
2016,09,29,06,26,4.60
2016,09,29,06,27,4.60
2016,09,29,06,28,4.60
2016,09,29,06,29,4.60
2016,09,29,06,30,4.60
2016,09,29,06,31,4.50
2016,09,29,06,32,4.50
2016,09,29,06,33,4.50
2016,09,29,06,34,4.50
2016,09,29,06,35,4.50
2016,09,29,06,36,4.50
2016,09,29,06,37,4.50
2016,09,29,06,38,4.50
2016,09,29,06,39,4.50
2016,09,29,06,40,4.40
2016,09,29,06,41,4.40
2016,09,29,06,42,4.40
2016,09,29,06,43,4.40
2016,09,29,06,44,4.40
2016,09,29,06,45,4.40
2016,09,29,06,46,4.40
2016,09,29,06,47,4.40
2016,09,29,06,48,4.40
2016,09,29,06,49,4.40
2016,09,29,06,50,4.40
2016,09,29,06,51,4.30
2016,09,29,06,52,4.30
2016,09,29,06,53,4.40
2016,09,29,06,54,4.40
2016,09,29,06,55,4.40
2016,09,29,06,56,4.40
2016,09,29,06,57,4.40
2016,09,29,06,58,4.40
2016,09,29,06,59,4.40
2016,09,29,07,00,4.40
2016,09,29,07,01,4.40
2016,09,29,07,02,4.40
2016,09,29,07,03,4.40
2016,09,29,07,04,4.40
2016,09,29,07,05,4.40
2016,09,29,07,06,4.40
2016,09,29,07,07,4.40
2016,09,29,07,08,4.50
2016,09,29,07,09,4.50
2016,09,29,07,10,4.60
2016,09,29,07,11,4.60
2016,09,29,07,12,4.60
2016,09,29,07,13,4.70
2016,09,29,07,14,4.70
2016,09,29,07,15,4.70
2016,09,29,07,16,4.80
2016,09,29,07,17,4.80
2016,09,29,07,18,4.80
2016,09,29,07,19,4.80
2016,09,29,07,20,4.90
2016,09,29,07,21,4.90
2016,09,29,07,22,4.90
2016,09,29,07,23,4.90
2016,09,29,07,24,4.90
2016,09,29,07,25,4.90
2016,09,29,07,26,4.90
2016,09,29,07,27,4.90
2016,09,29,07,28,5.00
2016,09,29,07,29,5.00
2016,09,29,07,30,5.00
2016,09,29,07,31,5.00
2016,09,29,07,32,5.00
2016,09,29,07,33,5.00
2016,09,29,07,34,5.00
2016,09,29,07,35,5.00
2016,09,29,07,36,5.00
2016,09,29,07,37,5.00
2016,09,29,07,38,5.00
2016,09,29,07,39,4.90
2016,09,29,07,40,4.90
2016,09,29,07,41,4.90
2016,09,29,07,42,4.90
2016,09,29,07,43,4.90
2016,09,29,07,44,4.90
2016,09,29,07,45,4.90
2016,09,29,07,46,4.80
2016,09,29,07,47,4.80
2016,09,29,07,48,4.80
2016,09,29,07,49,4.80
2016,09,29,07,50,4.80
2016,09,29,07,51,4.90
2016,09,29,07,52,4.90
2016,09,29,07,53,4.90
2016,09,29,07,54,4.90
2016,09,29,07,55,4.90
2016,09,29,07,56,5.00
2016,09,29,07,57,5.00
2016,09,29,07,58,5.00
2016,09,29,07,59,5.00
2016,09,29,08,00,5.10
2016,09,29,08,01,5.10
2016,09,29,08,02,5.10
2016,09,29,08,03,5.10
2016,09,29,08,04,5.20
2016,09,29,08,05,5.20
2016,09,29,08,06,5.20
2016,09,29,08,07,5.20
2016,09,29,08,08,5.30
2016,09,29,08,09,5.30
2016,09,29,08,10,5.30
2016,09,29,08,11,5.30
2016,09,29,08,12,5.40
2016,09,29,08,13,5.40
2016,09,29,08,14,5.40
2016,09,29,08,15,5.50
2016,09,29,08,16,5.50
2016,09,29,08,17,5.50
2016,09,29,08,18,5.60
2016,09,29,08,19,5.60
2016,09,29,08,20,5.60
2016,09,29,08,21,5.70
2016,09,29,08,22,5.70
2016,09,29,08,23,5.60
2016,09,29,08,24,5.60
2016,09,29,08,25,5.60
2016,09,29,08,26,5.60
2016,09,29,08,27,5.60
2016,09,29,08,28,5.60
2016,09,29,08,29,5.60
2016,09,29,08,30,5.60
2016,09,29,08,31,5.60
2016,09,29,08,32,5.60
2016,09,29,08,33,5.60
2016,09,29,08,34,5.60
2016,09,29,08,35,5.60
2016,09,29,08,36,5.60
2016,09,29,08,37,5.60
2016,09,29,08,38,5.70
2016,09,29,08,39,5.70
2016,09,29,08,40,5.70
2016,09,29,08,41,5.70
2016,09,29,08,42,5.80
2016,09,29,08,43,5.80
2016,09,29,08,44,5.80
2016,09,29,08,45,5.80
2016,09,29,08,46,5.80
2016,09,29,08,47,5.90
2016,09,29,08,48,5.90
2016,09,29,08,49,5.90
2016,09,29,08,50,5.90
2016,09,29,08,51,5.90
2016,09,29,08,52,6.00
2016,09,29,08,53,6.00
2016,09,29,08,54,6.10
2016,09,29,08,55,6.10
2016,09,29,08,56,6.10
2016,09,29,08,57,6.20
2016,09,29,08,58,6.20
2016,09,29,08,59,6.20
2016,09,29,09,00,6.30
2016,09,29,09,01,6.30
2016,09,29,09,02,6.30
2016,09,29,09,03,6.30
2016,09,29,09,04,6.30
2016,09,29,09,05,6.30
2016,09,29,09,06,6.40
2016,09,29,09,07,6.40
2016,09,29,09,08,6.40
2016,09,29,09,09,6.40
2016,09,29,09,10,6.40
2016,09,29,09,11,6.40
2016,09,29,09,12,6.50
2016,09,29,09,13,6.50
2016,09,29,09,14,6.50
2016,09,29,09,15,6.50
2016,09,29,09,16,6.50
2016,09,29,09,17,6.60
2016,09,29,09,18,6.60
2016,09,29,09,19,6.60
2016,09,29,09,20,6.60
2016,09,29,09,21,6.60
2016,09,29,09,22,6.60
2016,09,29,09,23,6.60
2016,09,29,09,24,6.60
2016,09,29,09,25,6.60
2016,09,29,09,26,6.60
2016,09,29,09,27,6.60
2016,09,29,09,28,6.60
2016,09,29,09,29,6.60
2016,09,29,09,30,6.60
2016,09,29,09,31,6.60
2016,09,29,09,32,6.60
2016,09,29,09,33,6.60
2016,09,29,09,34,6.60
2016,09,29,09,35,6.60
2016,09,29,09,36,6.60
2016,09,29,09,37,6.60
2016,09,29,09,38,6.60
2016,09,29,09,39,6.60
2016,09,29,09,40,6.60
2016,09,29,09,41,6.60
2016,09,29,09,42,6.60
2016,09,29,09,43,6.70
2016,09,29,09,44,6.70
2016,09,29,09,45,6.70
2016,09,29,09,46,6.70
2016,09,29,09,47,6.70
2016,09,29,09,48,6.70
2016,09,29,09,49,6.80
2016,09,29,09,50,6.80
2016,09,29,09,51,6.80
2016,09,29,09,52,6.80
2016,09,29,09,53,6.80
2016,09,29,09,54,6.90
2016,09,29,09,55,6.90
2016,09,29,09,56,6.90
2016,09,29,09,57,7.00
2016,09,29,09,58,7.00
2016,09,29,09,59,6.90
2016,09,29,10,00,6.90
2016,09,29,10,01,6.90
2016,09,29,10,02,6.90
2016,09,29,10,03,7.00
2016,09,29,10,04,7.00
2016,09,29,10,05,7.10
2016,09,29,10,06,7.20
2016,09,29,10,07,7.20
2016,09,29,10,08,7.30
2016,09,29,10,09,7.30
2016,09,29,10,10,7.30
2016,09,29,10,11,7.30
2016,09,29,10,12,7.30
2016,09,29,10,13,7.30
2016,09,29,10,14,7.40
2016,09,29,10,15,7.40
2016,09,29,10,16,7.40
2016,09,29,10,17,7.50
2016,09,29,10,18,7.50
2016,09,29,10,19,7.60
2016,09,29,10,20,7.60
2016,09,29,10,21,7.60
2016,09,29,10,22,7.70
2016,09,29,10,23,7.70
2016,09,29,10,24,7.70
2016,09,29,10,25,7.70
2016,09,29,10,26,7.70
2016,09,29,10,27,7.80
2016,09,29,10,28,7.80
2016,09,29,10,29,7.80
2016,09,29,10,30,7.80
2016,09,29,10,31,7.80
2016,09,29,10,32,7.90
2016,09,29,10,33,7.90
2016,09,29,10,34,7.90
2016,09,29,10,35,7.90
2016,09,29,10,36,7.90
2016,09,29,10,37,7.90
2016,09,29,10,38,7.90
2016,09,29,10,39,7.90
2016,09,29,10,40,7.90
2016,09,29,10,41,7.90
2016,09,29,10,42,7.90
2016,09,29,10,43,7.90
2016,09,29,10,44,7.90
2016,09,29,10,45,7.90
2016,09,29,10,46,7.90
2016,09,29,10,47,7.90
2016,09,29,10,48,7.90
2016,09,29,10,49,8.00
2016,09,29,10,50,8.00
2016,09,29,10,51,8.10
2016,09,29,10,52,8.10
2016,09,29,10,53,8.20
2016,09,29,10,54,8.20
2016,09,29,10,55,8.30
2016,09,29,10,56,8.30
2016,09,29,10,57,8.30
2016,09,29,10,58,8.30
2016,09,29,10,59,8.30
2016,09,29,11,00,8.30
2016,09,29,11,01,8.30
2016,09,29,11,02,8.30
2016,09,29,11,03,8.30
2016,09,29,11,04,8.30
2016,09,29,11,05,8.30
2016,09,29,11,06,8.30
2016,09,29,11,07,8.30
2016,09,29,11,08,8.30
2016,09,29,11,09,8.30
2016,09,29,11,10,8.30
2016,09,29,11,11,8.30
2016,09,29,11,12,8.30
2016,09,29,11,13,8.40
2016,09,29,11,14,8.40
2016,09,29,11,15,8.40
2016,09,29,11,16,8.40
2016,09,29,11,17,8.50
2016,09,29,11,18,8.60
2016,09,29,11,19,8.70
2016,09,29,11,20,8.80
2016,09,29,11,21,8.80
2016,09,29,11,22,8.90
2016,09,29,11,23,8.90
2016,09,29,11,24,9.00
2016,09,29,11,25,9.10
2016,09,29,11,26,9.20
2016,09,29,11,27,9.20
2016,09,29,11,28,9.30
2016,09,29,11,29,9.40
2016,09,29,11,30,9.40
2016,09,29,11,31,9.40
2016,09,29,11,32,9.50
2016,09,29,11,33,9.50
2016,09,29,11,34,9.60
2016,09,29,11,35,9.60
2016,09,29,11,36,9.50
2016,09,29,11,37,9.50
2016,09,29,11,38,9.50
2016,09,29,11,39,9.50
2016,09,29,11,40,9.50
2016,09,29,11,41,9.50
2016,09,29,11,42,9.60
2016,09,29,11,43,9.70
2016,09,29,11,44,9.70
2016,09,29,11,45,9.80
2016,09,29,11,46,9.80
2016,09,29,11,47,9.80
2016,09,29,11,48,9.80
2016,09,29,11,49,9.80
2016,09,29,11,50,9.80
2016,09,29,11,51,9.80
2016,09,29,11,52,9.80
2016,09,29,11,53,9.90
2016,09,29,11,54,10.00
2016,09,29,11,55,10.00
2016,09,29,11,56,10.10
2016,09,29,11,57,10.20
2016,09,29,11,58,10.20
2016,09,29,11,59,10.30
2016,09,29,12,00,10.40
2016,09,29,12,01,10.50
2016,09,29,12,02,10.60
2016,09,29,12,03,10.70
2016,09,29,12,04,10.80
2016,09,29,12,05,10.90
2016,09,29,12,06,11.00
2016,09,29,12,07,11.10
2016,09,29,12,08,11.20
2016,09,29,12,09,11.20
2016,09,29,12,10,11.20
2016,09,29,12,11,11.20
2016,09,29,12,12,11.20
2016,09,29,12,13,11.20
2016,09,29,12,14,11.30
2016,09,29,12,15,11.30
2016,09,29,12,16,11.40
2016,09,29,12,17,11.40
2016,09,29,12,18,11.50
2016,09,29,12,19,11.60
2016,09,29,12,20,11.70
2016,09,29,12,21,11.70
2016,09,29,12,22,11.80
2016,09,29,12,23,11.90
2016,09,29,12,24,12.00
2016,09,29,12,25,12.10
2016,09,29,12,26,12.10
2016,09,29,12,27,12.20
2016,09,29,12,28,12.30
2016,09,29,12,29,12.30
2016,09,29,12,30,12.40
2016,09,29,12,31,12.40
2016,09,29,12,32,12.50
2016,09,29,12,33,12.50
2016,09,29,12,34,12.60
2016,09,29,12,35,12.60
2016,09,29,12,36,12.60
2016,09,29,12,37,12.60
2016,09,29,12,38,12.60
2016,09,29,12,39,12.70
2016,09,29,12,40,12.70
2016,09,29,12,41,12.70
2016,09,29,12,42,12.80
2016,09,29,12,43,12.90
2016,09,29,12,44,12.90
2016,09,29,12,45,13.00
2016,09,29,12,46,13.10
2016,09,29,12,47,13.10
2016,09,29,12,48,13.10
2016,09,29,12,49,13.20
2016,09,29,12,50,13.20
2016,09,29,12,51,13.30
2016,09,29,12,52,13.40
2016,09,29,12,53,13.50
2016,09,29,12,54,13.60
2016,09,29,12,55,13.80
2016,09,29,12,56,13.90
2016,09,29,12,57,14.00
2016,09,29,12,58,14.10
2016,09,29,12,59,14.10
2016,09,29,13,00,14.10
2016,09,29,13,01,14.30
2016,09,29,13,02,14.20
2016,09,29,13,03,14.20
2016,09,29,13,04,14.20
2016,09,29,13,05,14.20
2016,09,29,13,06,14.20
2016,09,29,13,07,14.20
2016,09,29,13,08,14.20
2016,09,29,13,09,14.20
2016,09,29,13,10,14.20
2016,09,29,13,11,14.30
2016,09,29,13,12,14.30
2016,09,29,13,13,14.30
2016,09,29,13,14,14.40
2016,09,29,13,15,14.50
2016,09,29,13,16,14.60
2016,09,29,13,17,14.60
2016,09,29,13,18,14.70
2016,09,29,13,19,14.80
2016,09,29,13,20,14.90
2016,09,29,13,21,15.00
2016,09,29,13,22,15.10
2016,09,29,13,23,15.20
2016,09,29,13,24,15.30
2016,09,29,13,25,15.40
2016,09,29,13,26,15.40
2016,09,29,13,27,15.50
2016,09,29,13,28,15.50
2016,09,29,13,29,15.60
2016,09,29,13,30,15.60
2016,09,29,13,31,15.70
2016,09,29,13,32,15.70
2016,09,29,13,33,15.70
2016,09,29,13,34,15.70
2016,09,29,13,35,15.70
2016,09,29,13,36,15.70
2016,09,29,13,37,15.80
2016,09,29,13,38,15.80
2016,09,29,13,39,15.80
2016,09,29,13,40,15.90
2016,09,29,13,41,15.90
2016,09,29,13,42,15.90
2016,09,29,13,43,16.00
2016,09,29,13,44,16.10
2016,09,29,13,45,16.10
2016,09,29,13,46,16.20
2016,09,29,13,47,16.20
2016,09,29,13,48,16.30
2016,09,29,13,49,16.30
2016,09,29,13,50,16.30
2016,09,29,13,51,16.30
2016,09,29,13,52,16.40
2016,09,29,13,53,16.40
2016,09,29,13,54,16.50
2016,09,29,13,55,16.50
2016,09,29,13,56,16.60
2016,09,29,13,57,16.60
2016,09,29,13,58,16.70
2016,09,29,13,59,16.80
2016,09,29,14,00,16.90
2016,09,29,14,01,16.90
2016,09,29,14,02,17.00
2016,09,29,14,03,17.00
2016,09,29,14,04,17.00
2016,09,29,14,05,17.10
2016,09,29,14,06,17.10
2016,09,29,14,07,17.10
2016,09,29,14,08,17.10
2016,09,29,14,09,17.00
2016,09,29,14,10,16.90
2016,09,29,14,11,16.90
2016,09,29,14,12,16.80
2016,09,29,14,13,16.80
2016,09,29,14,14,16.80
2016,09,29,14,15,16.80
2016,09,29,14,16,16.80
2016,09,29,14,17,16.90
2016,09,29,14,18,17.00
2016,09,29,14,19,17.00
2016,09,29,14,20,17.10
2016,09,29,14,21,17.00
2016,09,29,14,22,17.00
2016,09,29,14,23,17.10
2016,09,29,14,24,17.10
2016,09,29,14,25,17.10
2016,09,29,14,26,17.00
2016,09,29,14,27,17.00
2016,09,29,14,28,17.00
2016,09,29,14,29,17.10
2016,09,29,14,30,17.10
2016,09,29,14,31,17.10
2016,09,29,14,32,17.00
2016,09,29,14,33,17.00
2016,09,29,14,34,17.00
2016,09,29,14,35,17.10
2016,09,29,14,36,17.10
2016,09,29,14,37,17.10
2016,09,29,14,38,17.10
2016,09,29,14,39,17.20
2016,09,29,14,40,17.20
2016,09,29,14,41,17.20
2016,09,29,14,42,17.30
2016,09,29,14,43,17.30
2016,09,29,14,44,17.30
2016,09,29,14,45,17.30
2016,09,29,14,46,17.30
2016,09,29,14,47,17.30
2016,09,29,14,48,17.30
2016,09,29,14,49,17.30
2016,09,29,14,50,17.30
2016,09,29,14,51,17.30
2016,09,29,14,52,17.30
2016,09,29,14,53,17.30
2016,09,29,14,54,17.40
2016,09,29,14,55,17.40
2016,09,29,14,56,17.40
2016,09,29,14,57,17.50
2016,09,29,14,58,17.50
2016,09,29,14,59,17.60
2016,09,29,15,00,17.60
2016,09,29,15,01,17.60
2016,09,29,15,02,17.50
2016,09,29,15,03,17.50
2016,09,29,15,04,17.50
2016,09,29,15,05,17.40
2016,09,29,15,06,17.40
2016,09,29,15,07,17.30
2016,09,29,15,08,17.30
2016,09,29,15,09,17.40
2016,09,29,15,10,17.40
2016,09,29,15,11,17.40
2016,09,29,15,12,17.40
2016,09,29,15,13,17.40
2016,09,29,15,14,17.40
2016,09,29,15,15,17.40
2016,09,29,15,16,17.40
2016,09,29,15,17,17.40
2016,09,29,15,18,17.40
2016,09,29,15,19,17.40
2016,09,29,15,20,17.50
2016,09,29,15,21,17.50
2016,09,29,15,22,17.50
2016,09,29,15,23,17.60
2016,09,29,15,24,17.60
2016,09,29,15,25,17.70
2016,09,29,15,26,17.80
2016,09,29,15,27,17.80
2016,09,29,15,28,17.90
2016,09,29,15,29,18.00
2016,09,29,15,30,18.10
2016,09,29,15,31,18.20
2016,09,29,15,32,18.20
2016,09,29,15,33,18.20
2016,09,29,15,34,18.30
2016,09,29,15,35,18.30
2016,09,29,15,36,18.30
2016,09,29,15,37,18.30
2016,09,29,15,38,18.30
2016,09,29,15,39,18.30
2016,09,29,15,40,18.20
2016,09,29,15,41,18.00
2016,09,29,15,42,18.00
2016,09,29,15,43,17.90
2016,09,29,15,44,17.80
2016,09,29,15,45,17.70
2016,09,29,15,46,17.70
2016,09,29,15,47,17.60
2016,09,29,15,48,17.60
2016,09,29,15,49,17.50
2016,09,29,15,50,17.40
2016,09,29,15,51,17.30
2016,09,29,15,52,17.30
2016,09,29,15,53,17.30
2016,09,29,15,54,17.20
2016,09,29,15,55,17.20
2016,09,29,15,56,17.20
2016,09,29,15,57,17.20
2016,09,29,15,58,17.30
2016,09,29,15,59,17.30
2016,09,29,16,00,17.30
2016,09,29,16,01,17.40
2016,09,29,16,02,17.40
2016,09,29,16,03,17.40
2016,09,29,16,04,17.50
2016,09,29,16,05,17.60
2016,09,29,16,06,17.60
2016,09,29,16,07,17.70
2016,09,29,16,08,17.70
2016,09,29,16,09,17.70
2016,09,29,16,10,17.80
2016,09,29,16,11,17.80
2016,09,29,16,12,17.80
2016,09,29,16,13,17.90
2016,09,29,16,14,17.90
2016,09,29,16,15,17.90
2016,09,29,16,16,18.00
2016,09,29,16,17,18.20
2016,09,29,16,18,18.20
2016,09,29,16,19,18.30
2016,09,29,16,20,18.30
2016,09,29,16,21,18.40
2016,09,29,16,22,18.40
2016,09,29,16,23,18.40
2016,09,29,16,24,18.40
2016,09,29,16,25,18.40
2016,09,29,16,26,18.40
2016,09,29,16,27,18.50
2016,09,29,16,28,18.50
2016,09,29,16,29,18.60
2016,09,29,16,30,18.60
2016,09,29,16,31,18.60
2016,09,29,16,32,18.60
2016,09,29,16,33,18.70
2016,09,29,16,34,18.60
2016,09,29,16,35,18.70
2016,09,29,16,36,18.70
2016,09,29,16,37,18.70
2016,09,29,16,38,18.70
2016,09,29,16,39,18.70
2016,09,29,16,40,18.60
2016,09,29,16,41,18.60
2016,09,29,16,42,18.50
2016,09,29,16,43,18.50
2016,09,29,16,44,18.50
2016,09,29,16,45,18.50
2016,09,29,16,46,18.50
2016,09,29,16,47,18.50
2016,09,29,16,48,18.60
2016,09,29,16,49,18.60
2016,09,29,16,50,18.50
2016,09,29,16,51,18.50
2016,09,29,16,52,18.50
2016,09,29,16,53,18.40
2016,09,29,16,54,18.40
2016,09,29,16,55,18.30
2016,09,29,16,56,18.30
2016,09,29,16,57,18.30
2016,09,29,16,58,18.30
2016,09,29,16,59,18.20
2016,09,29,17,00,18.20
2016,09,29,17,01,18.20
2016,09,29,17,02,18.20
2016,09,29,17,03,18.20
2016,09,29,17,04,18.30
2016,09,29,17,05,18.30
2016,09,29,17,06,18.30
2016,09,29,17,07,18.30
2016,09,29,17,08,18.30
2016,09,29,17,09,18.30
2016,09,29,17,10,18.30
2016,09,29,17,11,18.40
2016,09,29,17,12,18.40
2016,09,29,17,13,18.40
2016,09,29,17,14,18.40
2016,09,29,17,15,18.40
2016,09,29,17,16,18.40
2016,09,29,17,17,18.40
2016,09,29,17,18,18.50
2016,09,29,17,19,18.40
2016,09,29,17,20,18.50
2016,09,29,17,21,18.50
2016,09,29,17,22,18.50
2016,09,29,17,23,18.60
2016,09,29,17,24,18.60
2016,09,29,17,25,18.70
2016,09,29,17,26,18.70
2016,09,29,17,27,18.70
2016,09,29,17,28,18.70
2016,09,29,17,29,18.60
2016,09,29,17,30,18.60
2016,09,29,17,31,18.60
2016,09,29,17,32,18.50
2016,09,29,17,33,18.50
2016,09,29,17,34,18.40
2016,09,29,17,35,18.40
2016,09,29,17,36,18.40
2016,09,29,17,37,18.40
2016,09,29,17,38,18.30
2016,09,29,17,39,18.30
2016,09,29,17,40,18.30
2016,09,29,17,41,18.30
2016,09,29,17,42,18.20
2016,09,29,17,43,18.20
2016,09,29,17,44,18.20
2016,09,29,17,45,18.20
2016,09,29,17,46,18.20
2016,09,29,17,47,18.20
2016,09,29,17,48,18.20
2016,09,29,17,49,18.20
2016,09,29,17,50,18.20